Regional Weather Roundup
Issued by NWS

Home | Current Version | Previous Version | Text Only | Print | Product List | Glossary Off
Versions: 1 2 3 4 5 6 7 8 9 10 11 12 13 14 15 16 17 18 19 20 21 22 23 24 25 26 27 28 29 30 31 32 33 34 35 36 37 38 39 40 41 42 43 44 45 46 47 48 49 50

000
ASUS43 KMKX 091700
RWRWI

WISCONSIN REGIONAL WEATHER ROUNDUP
NATIONAL WEATHER SERVICE MILWAUKEE/SULLIVAN WI
1100 AM CST FRI DEC 09 2016

NOTE: "FAIR" INDICATES FEW OR NO CLOUDS BELOW 12,000 FEET WITH NO
SIGNIFICANT WEATHER AND/OR OBSTRUCTIONS TO VISIBILITY.

WIZ001-002-006>008-014>016-023>028-091800-
NORTHWEST WISCONSIN

CITY           SKY/WX    TMP DP  RH WIND       PRES   REMARKS
SUPERIOR ARPT  CLOUDY    16   3  57 NW8       30.54S WCI   5
ASHLAND        CLOUDY    16   9  74 W9        30.49F WCI   4
HAYWARD        FLURRIES  16   8  71 VRB3      30.47F
SIREN          LGT SNOW  15  11  82 CALM      30.52S
CUMBERLAND     FLURRIES  16  10  79 CALM      30.49F
RICE LAKE      LGT SNOW  17  11  79 W3        30.51F
CHETEK         LGT SNOW  16  11  80 CALM      30.51F
LADYSMITH      CLOUDY    16   9  75 W3        30.51S
EAU CLAIRE     CLOUDY    16  12  84 SW7       30.53F WCI   6
MENOMONIE      CLOUDY    19  13  79 W5        30.53F WCI  12
NEW RICHMOND   FLURRIES  16  11  80 W6        30.53S WCI   7
OSCEOLA        LGT SNOW  17  12  81 SW6       30.57S WCI   9
$$

WIZ003>005-009-010-017-018-091800-
NORTH CENTRAL WISCONSIN

CITY           SKY/WX    TMP DP  RH WIND       PRES   REMARKS
MANITOWISH WTR CLOUDY    14   8  77 W8        30.40F WCI   3
ARBOR VITAE    CLOUDY    17   8  70 NW9       30.41S WCI   5
WOODRUFF       CLOUDY    17   8  70 NW9       30.41S WCI   5
RHINELANDER    PTSUNNY   18   9  68 NW12G18   30.40F WCI   5
EAGLE RIVER    CLOUDY    16   8  70 NW7       30.39F WCI   6
LAND O LAKES   FLURRIES  16  11  80 W6        30.39F WCI   8
PHILLIPS       CLOUDY    14   7  73 NW13      30.44F WCI  -1
TOMAHAWK       FLURRIES  16   8  72 W7        30.44F WCI   6
MEDFORD        CLOUDY    14   7  75 NW6       30.45F WCI   5
MERRILL        CLOUDY    18   8  66 NW7       30.45F WCI   8
$$

WIZ029-030-035-036-043>047-091800-
CENTRAL WISCONSIN

CITY           SKY/WX    TMP DP  RH WIND       PRES   REMARKS
WAUSAU         MOSUNNY   17   8  67 W9        30.45F WCI   6
MOSINEE        NOT AVBL
MARSHFIELD     CLOUDY    15   8  73 NW9       30.47F WCI   3
STEVENS POINT  SUNNY     17   8  67 NW5       30.48F WCI  10
WAUPACA        SUNNY     24  13  61 W10       30.48F WCI  14
WAUTOMA        SUNNY     20  12  71 W9        30.50F WCI   9
WISC RAPIDS    CLOUDY    18  10  71 N8        30.50F WCI   8
CAMP DOUGLAS   NOT AVBL
$$

WIZ011>013-019>022-031-037>040-048>050-091800-
NORTHEAST WISCONSIN

CITY           SKY/WX    TMP DP  RH WIND       PRES   REMARKS
ANTIGO         SUNNY     16   8  72 W9        30.42S WCI   4
SHAWANO        SUNNY     24  10  56 W9        30.47S WCI  14
OCONTO         SUNNY     23  10  59 NW10G16   30.44F WCI  12
STURGEON BAY   CLOUDY    25  12  58 NW12      30.43S WCI  14
GREEN BAY      SUNNY     26  12  55 W15       30.46F WCI  14
MANITOWOC      NOT AVBL
APPLETON       MOSUNNY   23   9  54 NW12G18   30.45F WCI  12
CLINTONVILLE   SUNNY     23  10  58 NW12      30.47F WCI  12
OSHKOSH        SUNNY     22  10  60 NW12      30.47F WCI  10
$$

WIZ032>034-041-042-053>061-091800-
SOUTHWEST WISCONSIN

CITY           SKY/WX    TMP DP  RH WIND       PRES   REMARKS
LA CROSSE      MOSUNNY   22  10  60 NW7       30.57S WCI  13
SPARTA         PTSUNNY   21  11  66 NW7       30.55F WCI  12
VIROQUA        CLOUDY    17  11  75 NW5       30.51S WCI  10
BOSCOBEL       PTSUNNY   22  12  65 VRB5      30.58S WCI  16
PRAIRIE DU CHI SUNNY     20  11  67 W6        30.59S WCI  12
PLATTEVILLE    SUNNY     19  14  83 W8        30.55R WCI   8
$$

WIZ056-057-062-063-064-067-068-091800-
SOUTH CENTRAL WISCONSIN

CITY           SKY/WX    TMP DP  RH WIND       PRES   REMARKS
REEDSBURG      PTSUNNY   20  11  69 W10       30.53S WCI   8
BARABOO/DELLS  SUNNY     20  10  65 NW9       30.52S WCI  10
LONE ROCK      NOT AVBL
MINERAL POINT  FLURRIES  21  16  79 W7        30.52S WCI  13
MADISON        MOSUNNY   21  10  62 NW10      30.51F WCI  10
MIDDLETON      SUNNY     23  13  66 NW9       30.53S WCI  13
WATERTOWN      MOSUNNY   22  14  71 NW10      30.51S WCI  11
MONROE         PTSUNNY   23  14  68 NW7       30.51F WCI  15
JANESVILLE     MOSUNNY   25  14  63 NW9       30.52F WCI  15
$$

WIZ051-052-058>065-066-070>072-091800-
SOUTHEAST WISCONSIN

CITY           SKY/WX    TMP DP  RH WIND       PRES   REMARKS
MILWAUKEE      MOSUNNY   26  11  52 W14       30.49F WCI  14
WAUKESHA       PTSUNNY   21  12  68 W14       30.50F WCI   8
MILWAUKEE/TIMM MOSUNNY   25   9  50 NW15      30.50F WCI  12
RACINE         PTSUNNY   25  11  55 NW9       30.51F WCI  15
BURLINGTON     MOSUNNY   28  17  64 W9        30.51S WCI  19
KENOSHA        PTSUNNY   26  13  57 W15       30.50F WCI  14
FOND DU LAC    SUNNY     22  11  62 W10       30.48F WCI  11
SHEBOYGAN      MOSUNNY   24  10  55 W16       30.46F WCI  11
WEST BEND      MOSUNNY   23  14  68 W13G21    30.47F WCI  11
JUNEAU         SUNNY     19  12  73 NW7       30.50F WCI  10
$$

LSZ147-162-091800-
LAKE SUPERIOR

STATION/POSITION TIME  TEMP    WIND        PRES    WAVE
                       AIR SEA DIR/SP/G            HT/PER
                 (UTC) (F)     (DEG/KT/KT) (MB)    (FT/S)
DEVILS ISLAND    1600   17     270/ 10/ 12 1033.8R
PORT WING        1640   17     280/ 12/ 17 1033.2S
SAXON HARBOR     1630   18     270/  7/ 13 1032.5S
$$

LMZ867-665-643>646-091800-
LAKE MICHIGAN

STATION/POSITION TIME  TEMP    WIND        PRES    WAVE
                       AIR SEA DIR/SP/G            HT/PER
                 (UTC) (F)     (DEG/KT/KT) (MB)    (FT/S)
CHAMBERS ISLAND  1640   25     290/  9/ 15 1029.1F
NORTHPORT PIER   1640   26     310/ 12/ 18 1029.1S
SISTER BAY       1605   27     340/ 18/ 20   N/A
ALGOMA LAKESHORE 1436          310/ 13/ 16   N/A
KEWAUNEE LAKESHO 1630   24     320/ 11/ 15 1030.2S
SHEBOYGAN LAKESH 1600   23     310/ 14/ 16 1032.8R
PORT WASHINGTON  1630   25     300/ 10/ 13 1033.2S
MILWAUKEE LAKESH 1630   24     300/  8/ 10   N/A
KENOSHA   LAKESH 1600   23     300/ 16/ 22 1033.2
$$

TC  - TEMPERATURE IN CELSIUS
VSB - VISIBILITY IN STATUTE MILES
WCI - WIND CHILL INDEX
HX  - HEAT INDEX





USA.gov is the U.S. government's official web portal to all federal, state and local government web resources and services.